TimeEST,TemperatureF,Dew PointF,Humidity,Sea Level PressureIn,VisibilityMPH,Wind Direction,Wind SpeedMPH,Gust SpeedMPH,PrecipitationIn,Events,Conditions,WindDirDegrees,DateUTC
12:15 AM,37.4,28.4,70,29.99,10.0,WNW,8.1,-,N/A,,Clear,290,2013-03-03 05:15:00
12:35 AM,37.4,28.4,70,29.98,10.0,WNW,8.1,-,N/A,,Clear,300,2013-03-03 05:35:00
12:55 AM,35.6,28.4,75,29.98,10.0,WNW,9.2,-,N/A,,Clear,290,2013-03-03 05:55:00
1:15 AM,37.4,28.4,70,29.98,10.0,WNW,10.4,16.1,N/A,,Clear,290,2013-03-03 06:15:00
1:35 AM,35.6,28.4,75,29.98,10.0,WNW,9.2,-,N/A,,Clear,290,2013-03-03 06:35:00
1:55 AM,35.6,28.4,75,29.97,10.0,WNW,8.1,-,N/A,,Clear,290,2013-03-03 06:55:00
2:15 AM,35.6,28.4,75,29.97,10.0,WNW,8.1,-,N/A,,Clear,290,2013-03-03 07:15:00
2:55 AM,35.6,28.4,75,29.96,10.0,WNW,6.9,-,N/A,,Clear,290,2013-03-03 07:55:00
3:15 AM,33.8,28.4,81,29.96,10.0,WNW,6.9,-,N/A,,Clear,290,2013-03-03 08:15:00
3:35 AM,33.8,28.4,81,29.96,10.0,West,6.9,-,N/A,,Clear,280,2013-03-03 08:35:00
3:55 AM,33.8,28.4,81,29.96,10.0,WNW,5.8,-,N/A,,Clear,290,2013-03-03 08:55:00
4:15 AM,33.8,28.4,81,29.96,10.0,WNW,5.8,-,N/A,,Clear,290,2013-03-03 09:15:00
4:35 AM,33.8,28.4,81,29.97,10.0,WNW,5.8,-,N/A,,Scattered Clouds,300,2013-03-03 09:35:00
4:55 AM,32.0,28.4,87,29.97,10.0,WNW,6.9,-,N/A,,Scattered Clouds,300,2013-03-03 09:55:00
5:15 AM,33.8,28.4,81,29.97,10.0,WNW,6.9,-,N/A,,Mostly Cloudy,300,2013-03-03 10:15:00
5:35 AM,33.8,28.4,81,29.98,10.0,NW,8.1,-,N/A,,Overcast,310,2013-03-03 10:35:00
5:55 AM,33.8,28.4,81,29.98,10.0,NW,10.4,-,N/A,,Overcast,310,2013-03-03 10:55:00
6:15 AM,35.6,28.4,75,29.99,10.0,WNW,11.5,-,N/A,,Overcast,300,2013-03-03 11:15:00
6:35 AM,35.6,28.4,75,29.99,10.0,NW,10.4,-,N/A,,Overcast,310,2013-03-03 11:35:00
6:55 AM,35.6,28.4,75,29.99,10.0,NW,10.4,17.3,N/A,,Overcast,320,2013-03-03 11:55:00
7:15 AM,35.6,26.6,70,29.99,10.0,NW,10.4,-,N/A,,Overcast,320,2013-03-03 12:15:00
7:35 AM,35.6,26.6,70,30.00,10.0,NW,10.4,-,N/A,,Overcast,310,2013-03-03 12:35:00
7:55 AM,35.6,26.6,70,30.00,10.0,NW,11.5,16.1,N/A,,Overcast,320,2013-03-03 12:55:00
8:15 AM,37.4,26.6,65,30.01,10.0,NW,11.5,-,N/A,,Overcast,320,2013-03-03 13:15:00
8:35 AM,37.4,26.6,65,30.01,10.0,NNW,9.2,-,N/A,,Overcast,330,2013-03-03 13:35:00
8:55 AM,37.4,26.6,65,30.02,10.0,NW,12.7,17.3,N/A,,Overcast,320,2013-03-03 13:55:00
9:15 AM,37.4,26.6,65,30.02,10.0,NW,9.2,16.1,N/A,,Overcast,320,2013-03-03 14:15:00
9:35 AM,39.2,24.8,56,30.03,10.0,NW,11.5,16.1,N/A,,Overcast,320,2013-03-03 14:35:00
9:55 AM,41.0,24.8,53,30.03,10.0,WNW,11.5,-,N/A,,Overcast,300,2013-03-03 14:55:00
10:15 AM,41.0,26.6,57,30.02,10.0,NNW,9.2,16.1,N/A,,Overcast,330,2013-03-03 15:15:00
10:55 AM,42.8,26.6,53,30.02,10.0,NNW,6.9,16.1,N/A,,Overcast,330,2013-03-03 15:55:00
11:15 AM,42.8,26.6,53,30.02,10.0,WNW,10.4,-,N/A,,Overcast,290,2013-03-03 16:15:00
11:35 AM,42.8,24.8,49,30.01,10.0,NNW,9.2,-,N/A,,Overcast,330,2013-03-03 16:35:00
11:55 AM,42.8,24.8,49,30.01,10.0,NW,10.4,18.4,N/A,,Overcast,310,2013-03-03 16:55:00
12:15 PM,44.6,24.8,46,30.01,10.0,NW,12.7,17.3,N/A,,Overcast,310,2013-03-03 17:15:00
12:35 PM,44.6,24.8,46,30.00,10.0,WNW,6.9,-,N/A,,Overcast,300,2013-03-03 17:35:00
12:55 PM,42.8,26.6,53,30.01,10.0,West,10.4,17.3,N/A,,Overcast,260,2013-03-03 17:55:00
1:15 PM,42.8,26.6,53,30.00,10.0,West,11.5,-,N/A,,Overcast,270,2013-03-03 18:15:00
1:35 PM,42.8,26.6,53,30.00,10.0,WNW,10.4,18.4,N/A,,Overcast,290,2013-03-03 18:35:00
1:55 PM,42.8,24.8,49,29.99,10.0,WNW,11.5,19.6,N/A,,Overcast,290,2013-03-03 18:55:00
2:15 PM,42.8,23.0,46,29.99,10.0,West,11.5,-,N/A,,Overcast,270,2013-03-03 19:15:00
2:35 PM,42.8,24.8,49,29.99,10.0,WNW,12.7,19.6,N/A,,Overcast,290,2013-03-03 19:35:00
2:55 PM,42.8,24.8,49,29.98,10.0,NW,11.5,18.4,N/A,,Overcast,320,2013-03-03 19:55:00
3:15 PM,42.8,23.0,46,29.98,10.0,WNW,10.4,18.4,N/A,,Overcast,290,2013-03-03 20:15:00
3:35 PM,42.8,23.0,46,29.98,10.0,West,13.8,21.9,N/A,,Overcast,280,2013-03-03 20:35:00
3:55 PM,42.8,23.0,46,29.98,10.0,West,12.7,19.6,N/A,,Overcast,270,2013-03-03 20:55:00
4:35 PM,44.6,23.0,43,29.98,10.0,WNW,12.7,18.4,N/A,,Scattered Clouds,300,2013-03-03 21:35:00
4:55 PM,44.6,23.0,43,29.99,10.0,WNW,15.0,19.6,N/A,,Scattered Clouds,300,2013-03-03 21:55:00
5:15 PM,44.6,23.0,43,29.99,10.0,West,13.8,-,N/A,,Scattered Clouds,280,2013-03-03 22:15:00
5:35 PM,42.8,23.0,46,30.00,10.0,WNW,12.7,17.3,N/A,,Clear,290,2013-03-03 22:35:00
5:55 PM,42.8,23.0,46,30.01,10.0,WNW,11.5,18.4,N/A,,Clear,290,2013-03-03 22:55:00
6:15 PM,41.0,24.8,53,30.02,10.0,West,8.1,-,N/A,,Clear,270,2013-03-03 23:15:00
6:35 PM,41.0,24.8,53,30.02,10.0,West,6.9,-,N/A,,Clear,280,2013-03-03 23:35:00
6:55 PM,39.2,24.8,56,30.03,10.0,West,9.2,-,N/A,,Clear,280,2013-03-03 23:55:00
7:15 PM,39.2,24.8,56,30.04,10.0,West,6.9,-,N/A,,Clear,270,2013-03-04 00:15:00
7:35 PM,37.4,24.8,60,30.05,10.0,West,6.9,-,N/A,,Clear,270,2013-03-04 00:35:00
7:55 PM,37.4,24.8,60,30.05,10.0,West,4.6,-,N/A,,Clear,270,2013-03-04 00:55:00
8:15 PM,37.4,24.8,60,30.05,10.0,West,4.6,-,N/A,,Clear,260,2013-03-04 01:15:00
8:35 PM,37.4,24.8,60,30.05,10.0,West,4.6,-,N/A,,Clear,260,2013-03-04 01:35:00
8:55 PM,37.4,24.8,60,30.06,10.0,West,4.6,-,N/A,,Clear,260,2013-03-04 01:55:00
9:15 PM,35.6,24.8,65,30.06,10.0,West,4.6,-,N/A,,Clear,260,2013-03-04 02:15:00
9:35 PM,35.6,26.6,70,30.07,10.0,West,5.8,-,N/A,,Clear,260,2013-03-04 02:35:00
9:55 PM,35.6,26.6,70,30.07,10.0,West,4.6,-,N/A,,Clear,270,2013-03-04 02:55:00
10:15 PM,33.8,26.6,75,30.08,10.0,West,3.5,-,N/A,,Clear,280,2013-03-04 03:15:00
10:35 PM,32.0,26.6,80,30.08,10.0,West,4.6,-,N/A,,Clear,270,2013-03-04 03:35:00
10:55 PM,33.8,26.6,75,30.08,10.0,West,4.6,-,N/A,,Clear,270,2013-03-04 03:55:00
11:15 PM,33.8,26.6,75,30.08,10.0,West,4.6,-,N/A,,Clear,280,2013-03-04 04:15:00
11:35 PM,33.8,24.8,70,30.08,10.0,West,5.8,-,N/A,,Clear,280,2013-03-04 04:35:00
11:55 PM,33.8,24.8,70,30.08,10.0,West,6.9,-,N/A,,Clear,280,2013-03-04 04:55:00